Regional Weather Roundup
Issued by NWS Charleston, WV

Home | Current Version | Previous Version | Text Only | Print | Product List | Glossary Off
Versions: 1 2 3 4 5 6 7 8 9 10 11 12 13 14 15 16 17 18 19 20 21 22 23 24 25 26 27 28 29 30 31 32 33 34 35 36 37 38 39 40 41 42 43 44 45 46 47 48 49

000
ASUS41 KRLX 170710
RWRRLX
West Virginia Regional Weather Roundup
National Weather Service Charleston WV
200 AM EST FRI NOV 17 2017

Note: "fair" indicates few or no clouds below 12,000 feet with no
significant weather and/or obstructions to visibility.

WVZ003-170800-
Northern Panhandle of West Virginia

CITY           SKY/WX    TMP DP  RH WIND       PRES   REMARKS
WHEELING       CLOUDY    36  28  73 W6        30.21S
$$

WVZ009-170800-
Northwest West Virginia

CITY           SKY/WX    TMP DP  RH WIND       PRES   REMARKS
PARKERSBURG    CLOUDY    38  31  76 CALM      30.28S
$$

WVZ006-170800-
Western West Virginia

CITY           SKY/WX    TMP DP  RH WIND       PRES   REMARKS
HUNTINGTON     CLOUDY    37  29  72 CALM      30.27S
$$

WVZ015-170800-
West Central West Virginia

CITY           SKY/WX    TMP DP  RH WIND       PRES   REMARKS
CHARLESTON     CLOUDY    37  28  70 SW3       30.26S
$$

WVZ022-031-170800-
North Central West Virginia

CITY           SKY/WX    TMP DP  RH WIND       PRES   REMARKS
CLARKSBURG     CLOUDY    38  30  73 W5        30.22S
MORGANTOWN     CLOUDY    38  28  67 W5        30.21S
$$

WVZ025-035-042-045-170800-
Southern West Virginia

CITY           SKY/WX    TMP DP  RH WIND       PRES   REMARKS
BECKLEY        CLOUDY    31  26  82 N8        30.19S
LOGAN          CLOUDY    36  28  75 CALM      30.24R
BLUEFIELD      CLOUDY    31  26  82 W7        30.19R
LEWISBURG      CLOUDY    33  27  80 CALM      30.19S
$$

WVZ047-170800-
Northern Mountains of West Virginia

CITY           SKY/WX    TMP DP  RH WIND       PRES   REMARKS
ELKINS         CLOUDY    34  26  72 VRB3      30.19S
$$

WVZ052-170800-
Eastern Panhandle of West Virginia

CITY           SKY/WX    TMP DP  RH WIND       PRES   REMARKS
MARTINSBURG    CLOUDY    42  27  55 NW14      30.12S
PETERSBURG     CLOUDY    39  28  66 NW10G18   30.18S
$$




USA.gov is the U.S. government's official web portal to all federal, state and local government web resources and services.